"2009-05-29 00:00:00",927671,6.157,72.47,1.34,0.136,15.13,105.8816,14.33,15.24,41.85,0,110.4,13.35,15.13,34.5
"2009-05-29 00:00:30",927672,6.326,72.53,2.365,0.292,15.25,105.8812,14.33,15.26,41.94,0,110.4,13.35,15.13,34.5
"2009-05-29 00:01:00",927673,6.567,71.29,3.447,0.122,15.18,105.8813,14.33,15.28,41.48,0,110.4,13.35,15.13,33.3
"2009-05-29 00:01:30",927674,6.359,69.7,2.888,0.18,15.27,105.8795,14.32,15.28,41.64,0,110.4,13.34,15.13,31.7
"2009-05-29 00:02:00",927675,6.255,68.68,2.369,0.217,15.34,105.8795,14.32,15.29,40.73,0,110.4,13.34,15.13,30.7
"2009-05-29 00:02:30",927676,6.163,73.66,2.886,0.239,15.27,105.8811,14.33,15.29,40.84,0,110.4,13.34,15.13,35.7
"2009-05-29 00:03:00",927677,6.373,71.66,2.504,0.369,15.3,105.894,14.36,15.31,41.02,0,110.4,13.34,15.16,33.7
"2009-05-29 00:03:30",927678,6.205,69.39,2.458,0.248,15.33,105.9044,14.39,15.32,40.81,0,110.4,13.34,15.19,31.4
"2009-05-29 00:04:00",927679,6.449,69.52,3.106,0.225,15.22,105.9115,14.41,15.32,40.89,0,110.4,13.34,15.21,31.5
"2009-05-29 00:04:30",927680,6.598,68.91,1.835,0.123,15.13,105.9109,14.4,15.35,41.14,0,110.4,13.34,15.21,30.9
"2009-05-29 00:05:00",927681,6.547,67.46,2.517,0.205,15.21,105.91,14.4,15.36,41.18,0,110.4,13.34,15.20,29.5
"2009-05-29 00:05:30",927682,6.825,68.11,2.169,0.167,15.23,105.9094,14.4,15.36,41.01,0,110.4,13.34,15.20,30.1
"2009-05-29 00:06:00",927683,6.701,66.96,2.681,0.203,15.29,105.9114,14.41,15.38,40.8,0,110.4,13.34,15.21,29.0
"2009-05-29 00:06:30",927684,6.42,71.63,2.323,0.188,15.19,105.9198,14.43,15.38,40.96,0,110.4,13.34,15.23,33.6
"2009-05-29 00:07:00",927685,6.582,73.49,2.188,0.104,15.2,105.9279,14.45,15.4,40.87,0,110.4,13.34,15.25,35.5
"2009-05-29 00:07:30",927686,6.756,72.72,1.216,0.271,15.3,105.9325,14.46,15.4,40.74,0,110.4,13.35,15.26,34.7
"2009-05-29 00:08:00",927687,7.044,72.93,2.183,0.146,15.36,105.9392,14.48,15.42,40.57,0,110.4,13.35,15.28,34.9
"2009-05-29 00:08:30",927688,6.832,71.68,2.173,0.272,15.37,105.9408,14.48,15.43,40.39,0,110.4,13.35,15.28,33.7
"2009-05-29 00:09:00",927689,6.502,68.8,1.209,0.135,15.38,105.9408,14.48,15.42,40.11,0,110.4,13.35,15.28,30.8
"2009-05-29 00:09:30",927690,6.284,70.56,1.152,0.105,15.35,105.9423,14.49,15.43,40.14,0,110.4,13.35,15.29,32.6
"2009-05-29 00:10:00",927691,6.559,70.37,1.732,0.107,15.39,105.9408,14.48,15.46,39.89,0,110.4,13.35,15.28,32.4
"2009-05-29 00:10:30",927692,6.748,71.08,1.524,0.19,15.36,105.9417,14.48,15.45,39.98,0,110.4,13.35,15.29,33.1
"2009-05-29 00:11:00",927693,6.383,69.14,2.604,0.35,15.41,105.9414,14.48,15.47,39.93,0,110.4,13.35,15.29,31.1
"2009-05-29 00:11:30",927694,6.364,66.64,1.923,0.125,15.53,105.9514,14.51,15.48,39.32,0,110.4,13.35,15.31,28.6
"2009-05-29 00:12:00",927695,6.347,72.08,1.724,0.113,15.39,105.9688,14.55,15.49,39.46,0,110.4,13.35,15.36,34.1
"2009-05-29 00:12:30",927696,6.09,73.09,2.966,0.116,15.48,105.9738,14.57,15.5,39.28,0,110.4,13.35,15.37,35.1
"2009-05-29 00:13:00",927697,6.112,72.31,1.948,0.115,15.43,105.9747,14.57,15.51,39.32,0,110.4,13.35,15.37,34.3
"2009-05-29 00:13:30",927698,6.149,74.97,1.595,0.087,15.41,105.972,14.56,15.53,39.4,0,110.4,13.35,15.36,37.0
"2009-05-29 00:14:00",927699,6.055,79.7,1.071,0.156,15.38,105.9732,14.56,15.53,39.68,0,110.4,13.35,15.37,41.7
"2009-05-29 00:14:30",927700,5.981,74.47,3.062,0.189,15.43,105.9754,14.57,15.54,39.56,0,110.4,13.35,15.37,36.5
"2009-05-29 00:15:00",927701,6.195,79.46,2.516,0.151,15.41,105.9829,14.59,15.56,39.53,0,110.4,13.35,15.39,41.5
"2009-05-29 00:15:30",927702,5.953,81.1,1.063,0.227,15.35,105.9913,14.61,15.57,39.69,0,110.4,13.35,15.41,43.1
"2009-05-29 00:16:00",927703,5.694,78.79,2.32,0.206,15.4,106.0023,14.64,15.59,39.57,0,110.4,13.35,15.44,40.8
"2009-05-29 00:16:30",927704,5.49,82.2,1.741,0.197,15.38,106.0043,14.64,15.59,39.25,0,110.4,13.35,15.45,44.2
"2009-05-29 00:17:00",927705,5.045,80.9,2.323,0.176,15.42,106.004,14.64,15.59,39.22,0,110.4,13.35,15.45,42.9
"2009-05-29 00:17:30",927706,5.519,83.8,1.95,0.318,15.44,106.0028,14.64,15.61,39.37,0,110.4,13.35,15.44,45.8
"2009-05-29 00:18:00",927707,6.419,85.2,2.202,0.36,15.66,106.0046,14.64,15.61,38.85,0,110.4,13.35,15.45,47.2
"2009-05-29 00:18:30",927708,6.266,88,3.568,0.387,15.96,106.004,14.64,15.61,37.88,0,110.4,13.34,15.45,50.0
"2009-05-29 00:19:00",927709,6.707,85,2.081,0.201,15.47,106.0131,14.67,15.63,38.2,0,110.4,13.34,15.47,47.0
"2009-05-29 00:19:30",927710,6.892,84.6,1.82,0.207,15.39,106.0277,14.7,15.64,39.12,0,110.4,13.34,15.51,46.6
"2009-05-29 00:20:00",927711,7.603,84.1,2.851,0.391,15.62,106.0367,14.73,15.66,38.94,0,110.4,13.34,15.53,46.1
"2009-05-29 00:20:30",927712,6.99,84.9,1.569,0.268,15.4,106.0363,14.73,15.68,39.19,0,110.4,13.34,15.53,46.9
"2009-05-29 00:21:00",927713,7.202,79.21,2.413,0.273,15.27,106.034,14.72,15.68,39.56,0,110.4,13.34,15.52,41.2
"2009-05-29 00:21:30",927714,6.648,78.18,1.139,0.4,15.44,106.0351,14.72,15.69,39.65,0,110.4,13.34,15.53,40.2
"2009-05-29 00:22:00",927715,6.457,78.13,0.84,0.27,15.5,106.0354,14.72,15.69,39.37,0,110.4,13.34,15.53,40.1
"2009-05-29 00:22:30",927716,6.024,80.4,1.919,0.158,15.48,106.0331,14.72,15.71,39.17,0,110.4,13.34,15.52,42.4
"2009-05-29 00:23:00",927717,5.893,77.85,1.988,0.152,15.48,106.0351,14.72,15.69,39.1,0,110.4,13.34,15.53,39.8
"2009-05-29 00:23:30",927718,5.803,75.81,1.947,0.146,15.45,106.034,14.72,15.72,39.04,0,110.4,13.35,15.52,37.8
"2009-05-29 00:24:00",927719,5.797,79.27,2.314,0.134,15.46,106.0307,14.71,15.7,39.04,0,110.4,13.35,15.51,41.3
"2009-05-29 00:24:30",927720,5.588,82,2.423,0.262,15.41,106.031,14.71,15.72,39,0,110.4,13.35,15.52,44.0
"2009-05-29 00:25:00",927721,5.839,81.2,2.449,0.175,15.35,106.031,14.71,15.73,39.04,0,110.4,13.35,15.52,43.2
"2009-05-29 00:25:30",927722,5.488,77.34,1.044,0.179,15.4,106.0316,14.71,15.73,39.03,0,110.4,13.35,15.52,39.3
"2009-05-29 00:26:00",927723,5.433,77.22,1.119,0.207,15.44,106.0313,14.71,15.72,38.77,0,110.4,13.35,15.52,39.2
"2009-05-29 00:26:30",927724,6.021,71.31,2.364,0.132,15.2,106.0298,14.71,15.72,39.21,0,110.4,13.35,15.51,33.3
"2009-05-29 00:27:00",927725,6.093,69.31,0.817,0.112,15.17,106.0319,14.71,15.73,39.53,0,110.4,13.35,15.52,31.3
"2009-05-29 00:27:30",927726,6.079,71.55,1.437,0.05,15.31,106.0304,14.71,15.73,39.51,0,110.4,13.35,15.51,33.6
"2009-05-29 00:28:00",927727,5.901,73.02,0.942,0.12,15.42,106.0298,14.71,15.74,39.33,0,110.4,13.35,15.51,35.0
"2009-05-29 00:28:30",927728,5.887,74.03,0.747,0.143,15.48,106.0289,14.71,15.74,39.13,0,110.4,13.35,15.51,36.0
"2009-05-29 00:29:00",927729,5.499,74.93,0.641,0.102,15.62,106.028,14.7,15.74,38.77,0,110.4,13.35,15.51,36.9
"2009-05-29 00:29:30",927730,5.446,74.33,0.64,0.089,15.58,106.0307,14.71,15.73,38.71,0,110.4,13.35,15.51,36.3
"2009-05-29 00:30:00",927731,5.897,72.39,1.217,0.232,15.58,106.0304,14.71,15.74,38.56,0,110.4,13.35,15.51,34.4
"2009-05-29 00:30:30",927732,5.983,70.36,1.418,0.096,15.67,106.0283,14.71,15.74,38.18,0,110.4,13.35,15.51,32.4
"2009-05-29 00:31:00",927733,6.091,72.6,2.882,0.406,15.7,106.0301,14.71,15.74,37.91,0,110.4,13.35,15.51,34.6
"2009-05-29 00:31:30",927734,5.815,68.03,4.347,0.335,15.72,106.0289,14.71,15.75,37.65,0,110.4,13.35,15.51,30.0
"2009-05-29 00:32:00",927735,5.984,61.19,1.667,0.203,15.63,106.0292,14.71,15.74,37.56,0,110.4,13.35,15.51,23.2
"2009-05-29 00:32:30",927736,6.102,61.45,2.425,0.61,15.63,106.0419,14.74,15.75,37.51,0,110.4,13.35,15.54,23.5
"2009-05-29 00:33:00",927737,6.738,59.38,1.752,0.408,15.57,106.0522,14.77,15.74,37.57,0,110.4,13.35,15.57,21.4
"2009-05-29 00:33:30",927738,6.463,57.39,2.268,0.192,15.67,106.0578,14.78,15.76,37.4,0,110.4,13.35,15.58,19.4
"2009-05-29 00:34:00",927739,5.462,50.32,2.671,0.233,15.86,106.0585,14.78,15.77,36.89,0,110.4,13.35,15.59,12.3
"2009-05-29 00:34:30",927740,5.587,51.24,2.257,0.258,15.69,106.0585,14.78,15.78,36.68,0,110.4,13.35,15.59,13.2
"2009-05-29 00:35:00",927741,5.378,50.08,2.989,0.215,15.72,106.0631,14.79,15.8,36.93,0,110.4,13.35,15.60,12.1
"2009-05-29 00:35:30",927742,5.639,48.69,2.026,0.139,15.68,106.0885,14.86,15.81,36.82,0,110.4,13.35,15.66,10.7
"2009-05-29 00:36:00",927743,5.1,46.76,2.162,0.272,15.6,106.0917,14.87,15.82,36.94,0,110.4,13.35,15.67,8.8
"2009-05-29 00:36:30",927744,5.244,47.51,3.174,0.383,15.4,106.0929,14.87,15.85,37.49,0,110.4,13.34,15.67,9.5
"2009-05-29 00:37:00",927745,5.04,50.2,2.231,0.267,15.35,106.1005,14.89,15.86,38.11,0,110.4,13.34,15.69,12.2
"2009-05-29 00:37:30",927746,5.542,47.17,3.122,0.218,15.39,106.1146,14.93,15.86,38.23,0,110.4,13.34,15.73,9.2
"2009-05-29 00:38:00",927747,5.078,54.08,5.924,0.15,15.34,106.1243,14.95,15.88,38.26,0,110.4,13.34,15.76,16.1
"2009-05-29 00:38:30",927748,4.592,50.51,7.296,0.295,15.37,106.1256,14.95,15.9,38.66,0,110.4,13.34,15.76,12.5
"2009-05-29 00:39:00",927749,4.234,49.82,5.386,0.295,15.39,106.1259,14.96,15.92,38.51,0,110.4,13.34,15.76,11.8
"2009-05-29 00:39:30",927750,4.418,46.13,2.819,0.176,15.44,106.1256,14.95,15.92,38.29,0,110.4,13.34,15.76,8.1
"2009-05-29 00:40:00",927751,4.252,46.12,1.581,0.091,15.16,106.1253,14.95,15.93,38.98,0,110.4,13.35,15.76,8.1
"2009-05-29 00:40:30",927752,4.191,43.14,1.721,0.177,15.1,106.1247,14.95,15.94,39.21,0,110.4,13.35,15.76,5.1
"2009-05-29 00:41:00",927753,3.661,39.17,2.804,0.257,15.24,106.1259,14.96,15.95,39.62,0,110.4,13.35,15.76,1.2
"2009-05-29 00:41:30",927754,2.249,26.92,3.105,0.274,15.36,106.1256,14.95,15.94,39.04,0,110.4,13.35,15.76,348.9
"2009-05-29 00:42:00",927755,2.306,28.73,5.328,0.223,15.17,106.1264,14.96,15.96,39.21,0,110.4,13.35,15.76,350.7
"2009-05-29 00:42:30",927756,2.173,34.23,2.594,0.157,15.14,106.1241,14.95,15.95,39.85,0,110.4,13.35,15.75,356.2
"2009-05-29 00:43:00",927757,2.034,34.45,4.311,0.404,15.09,106.1232,14.95,15.95,40.03,0,110.4,13.35,15.75,356.5
"2009-05-29 00:43:30",927758,1.96,34.68,4.844,0.356,15.18,106.1209,14.94,15.94,39.84,0,110.4,13.35,15.75,356.7
"2009-05-29 00:44:00",927759,1.225,28.9,2.618,0.108,15.36,106.1176,14.93,15.94,39.45,0,110.4,13.35,15.74,350.9
"2009-05-29 00:44:30",927760,1.114,20.49,7.157,0.159,15.32,106.1126,14.92,15.93,39.01,0,110.4,13.35,15.73,342.5
"2009-05-29 00:45:00",927761,0.951,18.99,7.435,0.363,15.26,106.1106,14.92,15.95,38.96,0,110.4,13.35,15.72,341.0
"2009-05-29 00:45:30",927762,1.295,17.5,4.118,0.23,15.22,106.1042,14.9,15.93,39.13,0,110.4,13.35,15.70,339.5
"2009-05-29 00:46:00",927763,1.731,34.76,8.39,0.297,15.14,106.1046,14.9,15.94,39.35,0,110.4,13.35,15.70,356.8
"2009-05-29 00:46:30",927764,2.185,33.28,4.253,0.247,15.19,106.1031,14.9,15.93,39.57,0,110.4,13.35,15.70,355.3
"2009-05-29 00:47:00",927765,1.886,31.37,6.078,0.276,15.15,106.0991,14.89,15.94,39.5,0,110.4,13.35,15.69,353.4
"2009-05-29 00:47:30",927766,1.961,33.04,4.945,0.191,14.81,106.0949,14.88,15.93,40.25,0,110.4,13.35,15.68,355.0
"2009-05-29 00:48:00",927767,1.605,17.47,9.58,0.566,14.7,106.0904,14.86,15.94,41.49,0,110.4,13.35,15.67,339.5
"2009-05-29 00:48:30",927768,1.074,6.385,8.52,0.457,14.53,106.0881,14.86,15.93,42.07,0,110.4,13.35,15.66,328.4
"2009-05-29 00:49:00",927769,2.411,7.394,5.107,0.465,14.18,106.089,14.86,15.93,44.4,0,110.4,13.35,15.66,329.4
"2009-05-29 00:49:30",927770,5.564,15.47,7.065,1.266,18.25,106.0893,14.86,16.2,46.54,0,110.5,13.31,15.67,337.5
"2009-05-29 00:50:00",927771,5.865,23.05,4.778,0.963,18.74,106.089,14.86,16.28,46.61,0,110.4,13.31,15.66,345.0
"2009-05-29 00:50:30",927772,3.449,24.45,4.503,1.418,14.72,106.0854,14.85,16.05,45.15,0,110.4,13.31,15.66,346.5
"2009-05-29 00:51:00",927773,3.742,23.35,9.13,1.363,14.82,106.0671,14.8,15.99,44.26,0,110.4,13.31,15.61,345.4
"2009-05-29 00:51:30",927774,2.459,22.11,3.473,0.132,12.19,106.0558,14.78,15.91,44.23,0,110.4,13.34,15.58,344.1
"2009-05-29 00:52:00",927775,2.57,18.84,2.516,0.221,11.67,106.0573,14.78,15.87,44.28,0,110.4,13.34,15.58,340.8
"2009-05-29 00:52:30",927776,2.273,25.36,3.164,0.237,11.97,106.0567,14.78,15.87,45.1,0,110.4,13.34,15.58,347.4
"2009-05-29 00:53:00",927777,2.752,25.03,5.076,0.274,12.29,106.0548,14.77,15.85,44.65,0,110.4,13.34,15.58,347.0
"2009-05-29 00:53:30",927778,2.501,29.05,1.867,0.197,12.72,106.0318,14.71,15.85,44.46,0,110.4,13.34,15.52,351.0
"2009-05-29 00:54:00",927779,2.598,28.06,2.681,0.225,13.1,106.0226,14.69,15.81,43.89,0,110.4,13.34,15.49,350.1
"2009-05-29 00:54:30",927780,2.698,27.78,2.128,0.247,13.29,106.0226,14.69,15.81,43.7,0,110.4,13.34,15.49,349.8
"2009-05-29 00:55:00",927781,2.473,22.29,2.451,0.152,13.51,106.0154,14.67,15.79,43.87,0,110.4,13.34,15.48,344.3
"2009-05-29 00:55:30",927782,2.766,20.53,2.104,0.182,13.6,105.991,14.61,15.75,44.11,0,110.4,13.34,15.41,342.5
"2009-05-29 00:56:00",927783,2.861,23.81,4.256,0.346,13.68,105.9891,14.6,15.74,44.4,0,110.4,13.34,15.41,345.8
"2009-05-29 00:56:30",927784,3.036,30.61,2.275,0.232,13.76,105.9885,14.6,15.72,44.43,0,110.4,13.35,15.41,352.6
"2009-05-29 00:57:00",927785,3.32,32.88,1.489,0.167,13.78,105.9882,14.6,15.72,44.38,0,110.4,13.35,15.41,354.9
"2009-05-29 00:57:30",927786,3.705,30.37,0.888,0.212,13.84,105.9836,14.59,15.69,44.95,0,110.4,13.35,15.39,352.4
"2009-05-29 00:58:00",927787,4.196,31.77,2.726,0.248,13.76,105.9712,14.56,15.68,45.56,0,110.4,13.35,15.36,353.8
"2009-05-29 00:58:30",927788,4.393,33.91,1.891,0.149,13.81,105.9588,14.53,15.67,45.8,0,110.4,13.35,15.33,355.9
"2009-05-29 00:59:00",927789,4.113,37.9,1.939,0.202,13.92,105.9531,14.51,15.66,45.71,0,110.4,13.35,15.32,359.9
"2009-05-29 00:59:30",927790,4.678,41.04,1.627,0.217,13.89,105.9523,14.51,15.64,45.8,0,110.4,13.35,15.31,3.0
"2009-05-29 01:00:00",927791,4.152,45.14,2.037,0.425,13.96,105.952,14.51,15.63,45.65,0,110.4,13.35,15.31,7.1
"2009-05-29 01:00:30",927792,3.108,54.04,6.91,0.54,14.29,105.952,14.51,15.62,44.68,0,110.4,13.35,15.31,16.0
"2009-05-29 01:01:00",927793,3.407,68.4,3.388,0.243,14.74,105.952,14.51,15.6,42.38,0,110.4,13.35,15.31,30.4
"2009-05-29 01:01:30",927794,3.802,71.56,2.683,0.158,14.83,105.952,14.51,15.59,40.45,0,110.4,13.35,15.31,33.6
"2009-05-29 01:02:00",927795,4.101,68.62,2.994,0.115,14.92,105.952,14.51,15.57,39.55,0,110.4,13.35,15.31,30.6
"2009-05-29 01:02:30",927796,4.11,72.76,3.856,0.26,14.82,105.952,14.51,15.58,39.25,0,110.4,13.35,15.31,34.8
"2009-05-29 01:03:00",927797,4.149,73.53,4.434,0.289,14.68,105.9534,14.51,15.58,39.45,0,110.4,13.35,15.32,35.5
"2009-05-29 01:03:30",927798,4.531,75.66,2.617,0.196,14.68,105.9706,14.56,15.58,39.54,0,110.5,13.35,15.36,37.7
"2009-05-29 01:04:00",927799,4.495,79.48,2.273,0.215,14.61,105.9858,14.6,15.6,39.69,0,110.5,13.35,15.40,41.5
"2009-05-29 01:04:30",927800,3.901,77.97,5.265,0.293,14.49,105.9866,14.6,15.61,40.25,0,110.5,13.35,15.40,40.0
"2009-05-29 01:05:00",927801,2.88,71.71,6.168,0.444,14.42,106.0103,14.66,15.64,40.23,0,110.5,13.35,15.46,33.7
"2009-05-29 01:05:30",927802,2.527,78.68,2.747,0.167,14.53,106.0196,14.68,15.65,40.58,0,110.5,13.35,15.49,40.7
"2009-05-29 01:06:00",927803,2.719,78.08,7.861,0.219,14.52,106.0238,14.69,15.67,40.91,0,110.5,13.35,15.50,40.1
"2009-05-29 01:06:30",927804,2.938,69.76,1.939,0.127,14.53,106.047,14.75,15.69,41.34,0,110.5,13.35,15.56,31.8
"2009-05-29 01:07:00",927805,2.404,63.91,5.14,0.135,14.37,106.0534,14.77,15.73,42.12,0,110.5,13.35,15.57,25.9
"2009-05-29 01:07:30",927806,2.534,50.01,5.739,0.202,14.19,106.0534,14.77,15.75,43.23,0,110.5,13.35,15.57,12.0
"2009-05-29 01:08:00",927807,2.764,43.22,5.833,0.267,14.13,106.0667,14.8,15.78,44.58,0,110.5,13.35,15.61,5.2
"2009-05-29 01:08:30",927808,2.367,31.61,9.15,0.426,14.15,106.0836,14.85,15.79,45.58,0,110.5,13.34,15.65,353.6
"2009-05-29 01:09:00",927809,2.678,33.39,10.13,0.238,14.31,106.0872,14.86,15.8,46.25,0,110.5,13.34,15.66,355.4
"2009-05-29 01:09:30",927810,3.336,23.21,9.95,1.529,15.95,106.0872,14.86,15.97,46.27,0,110.5,13.3,15.66,345.2
"2009-05-29 01:10:00",927811,4.907,37.3,7.899,1.312,18.06,106.0872,14.86,16.13,46.44,0,110.5,13.3,15.66,359.3
"2009-05-29 01:10:30",927812,3.651,29.13,6.879,1.365,15.55,106.0872,14.86,16.08,46.27,0,110.5,13.3,15.66,351.1
"2009-05-29 01:11:00",927813,3.709,41.75,6.168,1.441,14.82,106.0872,14.86,15.92,45.68,0,110.5,13.3,15.66,3.8
"2009-05-29 01:11:30",927814,2.365,45.07,3.144,0.125,12.11,106.0872,14.86,15.86,45.18,0,110.5,13.33,15.66,7.1
"2009-05-29 01:12:00",927815,2.685,44.71,2.885,0.26,12.26,106.0872,14.86,15.85,44.25,0,110.5,13.33,15.66,6.7
"2009-05-29 01:12:30",927816,3.35,44.7,3.877,0.119,12.43,106.0872,14.86,15.85,43.57,0,110.5,13.33,15.66,6.7
"2009-05-29 01:13:00",927817,3.511,38.78,7.349,0.479,12.91,106.0813,14.84,15.84,43.66,0,110.5,13.33,15.64,0.8
"2009-05-29 01:13:30",927818,2.551,29.15,4.607,0.547,13.26,106.0579,14.78,15.84,42.98,0,110.5,13.33,15.58,351.1
"2009-05-29 01:14:00",927819,3.285,35.95,4.296,0.484,13.82,106.0534,14.77,15.81,42.49,0,110.5,13.33,15.57,358.0
"2009-05-29 01:14:30",927820,4.141,39.51,3.117,0.401,14.17,106.0534,14.77,15.8,41.45,0,110.5,13.34,15.57,1.5
"2009-05-29 01:15:00",927821,3.265,46.62,7.849,0.508,14.45,106.0498,14.76,15.79,41.09,0,110.5,13.34,15.56,8.6
"2009-05-29 01:15:30",927822,4.438,56.76,4.579,0.465,15.1,106.0286,14.71,15.76,39.93,0,110.5,13.34,15.51,18.8
"2009-05-29 01:16:00",927823,3.105,48.68,10.51,0.697,14.62,106.0196,14.68,15.74,40.42,0,110.5,13.34,15.49,10.7
"2009-05-29 01:16:30",927824,2.936,49.49,5.363,0.232,14.55,106.0196,14.68,15.74,42.06,0,110.5,13.34,15.49,11.5
"2009-05-29 01:17:00",927825,3.658,47.84,5.947,0.216,14.98,106.0196,14.68,15.72,41.83,0,110.5,13.34,15.49,9.8
"2009-05-29 01:17:30",927826,3.781,51.81,4.113,0.173,15,106.0176,14.68,15.71,41.49,0,110.5,13.34,15.48,13.8
"2009-05-29 01:18:00",927827,3.892,53.37,3.456,0.514,15.46,106.0095,14.66,15.69,41.02,0,110.5,13.34,15.46,15.4
"2009-05-29 01:18:30",927828,4.447,49.22,1.011,0.055,15.72,105.9965,14.62,15.66,38.34,0,110.5,13.34,15.43,11.2
"2009-05-29 01:19:00",927829,4.155,50.13,2.013,0.247,15.44,105.9864,14.6,15.65,38.31,0,110.5,13.34,15.40,12.1
"2009-05-29 01:19:30",927830,3.955,48.43,1.314,0.14,15.49,105.9864,14.6,15.65,39.42,0,110.5,13.34,15.40,10.4
"2009-05-29 01:20:00",927831,3.369,54.71,3.543,0.209,15.68,105.9864,14.6,15.64,37.93,0,110.5,13.34,15.40,16.7
"2009-05-29 01:20:30",927832,2.919,46.84,5.412,0.286,15.05,105.9875,14.6,15.63,39.48,0,110.5,13.34,15.40,8.8
"2009-05-29 01:21:00",927833,2.123,35.16,4.726,0.34,14.83,105.9897,14.61,15.64,41.41,0,110.5,13.34,15.41,357.2
"2009-05-29 01:21:30",927834,2.736,47.06,4.601,0.271,15.01,105.9928,14.61,15.64,41.75,0,110.5,13.34,15.42,9.1
"2009-05-29 01:22:00",927835,2.186,34.94,7.177,0.365,15.04,105.9954,14.62,15.63,41.77,0,110.5,13.34,15.42,356.9
"2009-05-29 01:22:30",927836,2.066,32.4,11.31,0.528,14.92,105.9979,14.63,15.63,42.18,0,110.5,13.34,15.43,354.4
"2009-05-29 01:23:00",927837,2.51,32.4,5.011,0.451,14.98,105.9993,14.63,15.64,42.86,0,110.5,13.34,15.43,354.4
"2009-05-29 01:23:30",927838,2.798,39.32,4.382,0.534,15.15,105.9923,14.61,15.64,42.15,0,110.5,13.34,15.42,1.3
"2009-05-29 01:24:00",927839,3.048,48.4,8.08,0.389,15.07,105.9872,14.6,15.64,42.48,0,110.5,13.34,15.40,10.4
"2009-05-29 01:24:30",927840,3.548,52.56,2.308,0.26,15.1,105.9864,14.6,15.65,42.54,0,110.5,13.34,15.40,14.6
"2009-05-29 01:25:00",927841,3.205,41.88,9.51,0.429,15.02,105.9858,14.6,15.63,42.47,0,110.5,13.34,15.40,3.9
"2009-05-29 01:25:30",927842,3.384,37.56,8.6,0.31,15.02,105.9858,14.6,15.62,42.96,0,110.5,13.34,15.40,359.6
"2009-05-29 01:26:00",927843,3.908,49.58,2.76,0.218,15.35,105.9858,14.6,15.62,42.49,0,110.5,13.34,15.40,11.6
"2009-05-29 01:26:30",927844,3.024,29.81,14.17,0.699,15.26,105.9858,14.6,15.62,41.47,0,110.5,13.34,15.40,351.8
"2009-05-29 01:27:00",927845,2.106,27.17,16.76,1.022,15.34,105.9858,14.6,15.6,41.67,0,110.5,13.34,15.40,349.2
"2009-05-29 01:27:30",927846,2.669,15.26,6.71,0.653,15.22,105.9771,14.57,15.59,42.03,0,110.5,13.34,15.38,337.3
"2009-05-29 01:28:00",927847,2.6,22.77,6.714,0.397,15.16,105.9652,14.54,15.59,42.1,0,110.5,13.34,15.35,344.8
"2009-05-29 01:28:30",927848,3.122,24.64,3.416,0.291,15.08,105.9554,14.52,15.58,42.5,0,110.5,13.34,15.32,346.6
"2009-05-29 01:29:00",927849,2.87,38.84,4.648,0.229,15.17,105.9525,14.51,15.55,42.47,0,110.5,13.34,15.31,0.8
"2009-05-29 01:29:30",927850,2.933,31.74,6.641,0.545,15.04,105.952,14.51,15.55,42.44,0,110.5,13.34,15.31,353.7
"2009-05-29 01:30:00",927851,2.701,27.64,6.081,0.217,15.15,105.952,14.51,15.55,42.31,0,110.5,13.34,15.31,349.6
"2009-05-29 01:30:30",927852,2.364,32.83,3.92,0.316,15.42,105.952,14.51,15.54,41.79,0,110.5,13.34,15.31,354.8
"2009-05-29 01:31:00",927853,3.085,27.98,3.139,0.468,15.83,105.952,14.51,15.54,40.15,0,110.5,13.34,15.31,350.0
"2009-05-29 01:31:30",927854,3.139,22.11,2.236,0.234,15.97,105.952,14.51,15.52,39.05,0,110.5,13.35,15.31,344.1
"2009-05-29 01:32:00",927855,2.66,18.37,2.814,0.527,15.79,105.952,14.51,15.52,38.9,0,110.5,13.35,15.31,340.4
"2009-05-29 01:32:30",927856,2.417,20.05,3.748,0.269,15.55,105.952,14.51,15.53,39.09,0,110.5,13.35,15.31,342.0
"2009-05-29 01:33:00",927857,1.559,14.7,5.465,0.533,15.14,105.952,14.51,15.51,39.59,0,110.5,13.35,15.31,336.7
"2009-05-29 01:33:30",927858,1.595,12.41,6.531,0.462,15.29,105.952,14.51,15.51,40.56,0,110.5,13.35,15.31,334.4
"2009-05-29 01:34:00",927859,1.508,13.18,7.744,0.412,15.29,105.952,14.51,15.51,40.85,0,110.5,13.35,15.31,335.2
"2009-05-29 01:34:30",927860,1.604,11.26,6.708,0.293,15.31,105.952,14.51,15.51,40.96,0,110.5,13.35,15.31,333.3
"2009-05-29 01:35:00",927861,1.686,9.88,4.742,0.222,15.56,105.952,14.51,15.51,40.75,0,110.5,13.35,15.31,331.9
"2009-05-29 01:35:30",927862,1.493,4.839,5.994,0.205,15.64,105.952,14.51,15.51,40.13,0,110.5,13.35,15.31,326.8
"2009-05-29 01:36:00",927863,1.844,1.63,4.882,0.326,15.73,105.952,14.51,15.52,39.51,0,110.5,13.35,15.31,323.6
"2009-05-29 01:36:30",927864,2.329,357.8,4.006,0.287,15.72,105.952,14.51,15.52,39.03,0,110.5,13.35,15.31,319.8
"2009-05-29 01:37:00",927865,2.248,4.223,4.028,0.336,15.81,105.952,14.51,15.5,38.62,0,110.5,13.35,15.31,326.2
"2009-05-29 01:37:30",927866,1.922,7.738,2.994,0.222,15.84,105.9514,14.51,15.49,38.17,0,110.5,13.35,15.31,329.7
"2009-05-29 01:38:00",927867,1.875,10.43,3.743,0.249,15.81,105.952,14.51,15.51,37.81,0,110.5,13.35,15.31,332.4
"2009-05-29 01:38:30",927868,1.694,10.78,3.662,0.238,15.79,105.952,14.51,15.52,37.49,0,110.4,13.35,15.31,332.8
"2009-05-29 01:39:00",927869,1.291,8.55,7.947,0.311,15.73,105.952,14.51,15.5,37.49,0,110.5,13.35,15.31,330.5
"2009-05-29 01:39:30",927870,2.005,354.8,8.79,0.673,15.51,105.952,14.51,15.5,37.95,0,110.5,13.35,15.31,316.8
"2009-05-29 01:40:00",927871,2.918,345.8,2.595,0.168,15.44,105.952,14.51,15.5,38.66,0,110.5,13.35,15.31,307.8
"2009-05-29 01:40:30",927872,2.441,348.7,7.799,0.66,15.41,105.952,14.51,15.54,39.02,0,110.5,13.35,15.31,310.7
"2009-05-29 01:41:00",927873,0.961,3.827,8.98,0.306,15.85,105.952,14.51,15.54,38.31,0,110.4,13.35,15.31,325.8
"2009-05-29 01:41:30",927874,1.661,356.4,8.5,0.684,15.69,105.952,14.51,15.53,37.83,0,110.4,13.34,15.31,318.4
"2009-05-29 01:42:00",927875,2.268,349.8,7.807,0.474,15.57,105.952,14.51,15.53,38.45,0,110.4,13.34,15.31,311.8
"2009-05-29 01:42:30",927876,2.695,337.3,4.489,0.133,15.39,105.952,14.51,15.54,39.14,0,110.4,13.34,15.31,299.3
"2009-05-29 01:43:00",927877,3.308,335,1.926,0.281,15.09,105.952,14.51,15.55,39.63,0,110.4,13.34,15.31,297.0
"2009-05-29 01:43:30",927878,4.095,338.2,1.202,0.097,15.08,105.952,14.51,15.54,40.23,0,110.4,13.34,15.31,300.2
"2009-05-29 01:44:00",927879,4.054,339.2,1.416,0.079,15.15,105.952,14.51,15.58,40.51,0,110.4,13.34,15.31,301.2
"2009-05-29 01:44:30",927880,4.994,343.7,6.763,1.315,16.93,105.952,14.51,15.68,40.67,0,110.4,13.31,15.31,305.7
"2009-05-29 01:45:00",927881,4.035,340.6,2.7,0.493,15.21,105.952,14.51,15.69,40.73,0,110.4,13.35,15.31,302.6
"2009-05-29 01:45:30",927882,5.664,350,6.867,1.411,17.97,105.952,14.51,15.76,40.76,0,110.4,13.31,15.31,312.0
"2009-05-29 01:46:00",927883,5.163,344.8,7.161,1.366,16.09,105.952,14.51,15.6,40.56,0,110.4,13.31,15.31,306.8
"2009-05-29 01:46:30",927884,4.073,341,3.197,0.286,14.37,105.952,14.51,15.69,40.55,0,110.4,13.35,15.31,303.0
"2009-05-29 01:47:00",927885,3.697,339.3,1.287,0.093,13.42,105.952,14.51,15.56,40.22,0,110.4,13.35,15.31,301.3
"2009-05-29 01:47:30",927886,3.554,342,1.588,0.115,13.54,105.952,14.51,15.56,39.96,0,110.4,13.35,15.31,304.0
"2009-05-29 01:48:00",927887,3.117,349.1,2.222,0.276,13.97,105.9523,14.51,15.55,39.45,0,110.4,13.35,15.31,311.1